1st Responders/1st Detectors/Storm Spotters Weather Summary for Harrison County, KY

Forecast Maps


Reg. NEXRAD Animation


National Fire Danger: Day 1 & 2 Map

Current NWS Watch/Warnings

SPC Convective Day 1 Outlook


Day 2 Outlook

(Click images to enlarge|Page will refresh every 5 minutes)
UK Ag. Weather Center Desktop Severe Weather Service[HERE]
Harrison County, KY Hazardous Weather Outlook Webcast
(9 AM to 9 PM Mon-Fri)
[Fast]
[Dial-up]


UKAWC 1st Detectors/1st Responders Precision Weather Forecast For HARRISON County, Kentucky
(based on the NWS County Digital Forecast)

ISSUED AT 17:00 UTC ON TUESDAY MAY 28 2024
DAY TUESDAY
EDT 3HR 2P 3P 4P 5P 6P 7P
MAX/MIN -- -- -- -- -- 77°
TEMP 76° 77° 77° 77° 77° 76°
SKY COVER 36% 34% 33% 31% 29% 28%
Clouds
DEW PT 56° 56° 56° 56° 56° 58°
RH 49% 48% 48% 48% 48% 52%
POP 12HR -- -- -- -- -- --
RAIN/SNOW (liq.equ) 0.00in -- -- -- -- --
SNOWFALL 0in -- -- -- -- --
WIND SPEED(MPH) 13 13 10 9 8 7
WIND Gust(MPH) 23 23 23 21 18 15
WIND DIR W W W W W W
DEW -- -- -- -- -- --
HeatIndex 76 77 77 77 77 76
Rain Showers -- -- -- -- -- --
Thunder Storm -- -- -- -- -- --
WIND CHILL -- -- -- -- -- --
SPRAY COND
DRY COND
LIVESTOCK HEATSTRESS 71.18 71.79 71.79 71.79 71.79 71.46



DAY WEDNESDAY THURSDAY FRIDAY FRI SATURDAY SUNDAY MONDAY
EDT 6HR 8P 9P 10P 11P MIDN 1A 2A 3A 4A 5A 6A 7A 8A 9A 10A 11A NOON 1P 2P 3P 4P 5P 6P 7P 8P 9P 10P 11P MIDN 1A 2A 5A 8A 11A 2P 5P 8P 2A 8A 2P 8P 2A 8A 2P 8P 2A 8A 2P 8P 2A 8A 2P 8P
MAX/MIN -- -- -- -- -- -- -- -- -- -- -- -- 54° -- -- -- -- -- -- -- -- -- -- 72° -- -- -- -- -- -- -- -- 49° -- -- 74° -- -- 47° 76° -- -- 50° 79° -- -- 59° 81° -- -- 61° 85° --
TEMP 74° 70° 65° 65° 61° 59° 58° 56° 56° 56° 56° 54° 56° 59° 63° 65° 67° 68° 70° 70° 72° 72° 70° 68° 67° 65° 61° 58° 56° 56° 54° 52° 54° 63° 70° 72° 67° 52° 52° 72° 70° 56° 56° 74° 74° 63° 63° 74° 76° 65° 65° 79° 79°
SKY COVER 26% 26% 26% 25% 23% 21% 18% 17% 16% 14% 16% 18% 12% 21% 26% 24% 33% 43% 57% 55% 53% 50% 39% 32% 24% 14% 15% 16% 14% 13% 11% 12% 17% 6% 7% 5% 4% 3% 0% 9% 29% 53% 55% 48% 63% 64% 57% 41% 36% 38% 40% 44% 34%
Clouds
DEW PT 58° 58° 56° 56° 56° 54° 54° 54° 54° 54° 54° 54° 54° 56° 56° 56° 56° 54° 54° 54° 54° 54° 54° 54° 54° 54° 54° 54° 52° 52° 52° 50° 52° 50° 49° 49° 49° 43° 43° 45° 52° 47° 49° 58° 61° 58° 59° 65° 65° 61° 61° 67° 67°
RH 57% 65% 72% 72% 80% 83% 86% 92% 93% 92% 92% 99% 92% 86% 75% 70% 65% 61% 56% 55% 52% 55% 57% 61% 65% 70% 75% 83% 86% 89% 89% 96% 89% 63% 49% 43% 52% 71% 74% 39% 52% 69% 74% 57% 66% 84% 87% 71% 69% 89% 87% 64% 66%
POP 12HR 5% -- -- -- -- -- -- -- -- -- -- -- 10% -- -- -- -- -- -- -- -- -- -- -- 23% -- -- -- -- -- -- -- 1% -- -- -- 0% -- 1% -- 2% -- 8% -- 32% -- 41% -- 36% -- 23% -- 38%
RAIN/SNOW (liq.equ) 0.00in -- -- -- -- -- 0.00in -- -- -- -- -- 0.00in -- -- -- -- -- 0.00in -- -- -- -- -- 0.02in -- -- -- -- -- 0.02in -- 0.00in -- 0.00in -- 0.00in 0.00in 0.00in -- -- -- -- -- -- -- -- -- -- -- -- -- --
SNOWFALL 0in -- -- -- -- -- 0in -- -- -- -- -- 0in -- -- -- -- -- 0in -- -- -- -- -- 0in -- -- -- -- -- 0in -- 0in -- 0in -- 0in 0in 0in -- -- -- -- -- -- -- -- -- -- -- -- -- --
WIND SPEED(MPH) 6 5 2 2 2 2 2 2 2 2 2 5 6 6 7 8 9 10 10 10 10 9 8 7 6 5 5 2 2 1 1 1 1 2 6 6 2 1 2 6 2 2 5 7 5 2 5 7 2 1 2 7 5
WIND DIR W W W W W W W W W W W W W W NW NW NW W W NW NW NW NW NW NW NW NW NW N N N N NE NE N N NE NE E E E E SE S S S S SW S S S S S
HeatIndex 74 70 65 65 61 59 58 56 56 56 56 54 56 59 63 65 67 68 70 70 72 72 70 68 67 65 61 58 56 56 54 52 54 63 70 72 67 52 52 72 70 56 56 74 74 63 63 74 76 65 65 79 79
Rain Showers -- -- -- -- -- -- -- -- -- -- -- -- -- -- -- -- -- -- Slight Chance Slight Chance Slight Chance Slight Chance Slight Chance Slight Chance -- -- -- -- -- -- -- -- -- -- -- -- -- -- -- -- -- -- Slight Chance Chance Chance Chance Chance Chance Slight Chance Slight Chance Chance Chance Chance
Thunder Storm -- -- -- -- -- -- -- -- -- -- -- -- -- -- -- -- -- -- Slight Chance Slight Chance Slight Chance Slight Chance Slight Chance Slight Chance -- -- -- -- -- -- -- -- -- -- -- -- -- -- -- -- -- -- -- Chance Chance Slight Chance Slight Chance Chance Slight Chance Slight Chance Slight Chance Chance Chance
WIND CHILL -- -- -- -- -- -- -- -- -- -- -- -- -- -- -- -- -- -- -- -- -- -- -- -- -- -- -- -- -- -- -- -- -- -- -- -- -- -- -- -- -- -- -- -- -- -- -- -- -- -- -- -- --
SPRAY COND
DRY COND
LIVESTOCK HEATSTRESS 70.41 67.84 64.05 64.05 60.76 58.98 58.06 56.12 56.11 56.12 56.12 54.03 56.12 58.98 62.42 63.98 65.42 66.03 67.29 67.23 68.52 68.73 67.35 66.03 65.42 63.98 60.70 58.07 56.22 56.17 54.29 52.15 54.29 62.15 66.86 67.86 64.84 53.08 52.97 67.57 67.04 56.48 56.40 70.41 71.16 62.63 62.70 71.58 73.07 64.62 64.56 75.00 75.22

Click on individual weather variable above in left-hand column (ie., TEMP, RH, QPF 12HR) to view state forecast maps






NWS 48 Hr. Forecast Maps,

Regional Hourly Observations For HARRISON County, Kentucky
Issued at 100 PM EDT TUE MAY 28 2024
NORTHEAST KENTUCKY
  
CITY           SKY/WX    TMP DP  RH WIND       PRES   REMARKS
LEXINGTON      NOT AVBL                                               
COVINGTON      PTSUNNY   75  52  44 W16G28    29.98R                  
FRANKFORT      MOSUNNY   77  56  48 W10       29.99S                  


Current NOWCAST not available:
Nowcasts are not issued routinely during fair weather. Only when
precipitation or other significant weather is occuring in this county will these
forecasts be issued. Currently, there is no short term forecast in effect.


Fire Weather Forecast For HARRISON County, KY
Provided by the National Weather Service:

Issued at: Tue May 28 13:05:01 EDT 2024


                      Today        Tonight      Wed          

CLOUD COVER           Mclear       Mclear       Mclear       
PRECIP TYPE           None         None         Showers      
CHANCE PRECIP (%)     0            0            10           
TEMP (24H TREND)      79 (0)       53 (-4)      74           
RH % (24H TREND)      42 (-11)     97 (0)       47           
20FTWND-VAL/AM(MPH)   W  6                      W  5         
20FTWND-RDG/PM(MPH)   W  9 G19     Lgt/Var      NW  8        
PRECIP AMOUNT         0.00         0.00         0.01         
MIXING HGT(FT-AGL/MSL)8021                      6266         
TRANSPORT WND (MPH)   W 23                      NW 17        
VENT RATE (KT-FT)     168441                    99127        
DISPERSION            Excellent                 Excellent    
DSI                   SLGT UNSTBL  MOD UNSTBL   MOD UNSTBL   
LAL                   1            1            2            
HAINES INDEX          4            4            4            
ADI EARLY             112 VERY GOOD10 POOR      88 GOOD      
ADI LATE              109 VERY GOOD5 VERY POOR  85 GOOD      
MAX LVORI EARLY       6            4            5            
MAX LVORI LATE        1            6            1            

REMARKS...ADI IS ATMOSPHERIC DISPERSION INDEX BY LAVDAS.        
LVORI IS LOW VISIBILITY OCCURRENCE RISK INDEX.

.THURSDAY...Mostly clear. Lows around 50. Highs in the mid 70s.
Northwest winds around 5 mph. 
.FRIDAY...Clear. Lows in the upper 40s. Highs in the mid 70s.
North winds around 5 mph. 
.SATURDAY...Mostly cloudy. A 40 percent chance of showers and
thunderstorms. Lows in the lower 50s. Highs around 80. South
winds up to 5 mph. 
.SUNDAY...Mostly cloudy. A 40 percent chance of showers and
thunderstorms. Lows around 60. Highs in the lower 80s. Southwest
winds up to 5 mph. 
.MONDAY...Partly cloudy. A 40 percent chance of showers and
thunderstorms. Lows in the lower 60s. Highs in the mid 80s. South
winds up to 5 mph. 

SPC's Fire Weather Web Tool (Excellent!), SPC's Fire Weather Outlooks, NWS Fire Weather WEB, Fire Danger Class Map,
Keetch-Byram Drought Index, ROMAN Web, Haines Index ,
WFAS's 10-hr Dead Fuel Moist., WFAS's 100-hr Dead Fuel Moist., Probablity of Ignition, Visual blackness Map, Palmer Drought Index, HPC's Rainfall Forecast Maps


Hazardous Weather Outlook For HARRISON County, Kentucky
319 AM EDT Tue May 28 2024 /219 AM CDT Tue May 28 2024/

 DAY ONE  Today and tonight.

No hazardous weather is expected at this time.

 DAYS TWO THROUGH SEVEN  Wednesday through Monday.

No hazardous weather is expected at this time.

 SPOTTER INFORMATION STATEMENT  

Spotter activation is not expected at this time.

Latest HARRISON County, Kentucky Watches, Warnings and Advisories.
Additional Drought Info.: UKAWC Drought Page, Kentucky Drought Watch


7-Day Forecast For HARRISON County, KY

REST OF TODAY
Sunny. Highs in the upper 70s. West winds 5 to 15 mph.

TONIGHT
Mostly clear. Lows in the mid 50s. West winds up to 10 mph.

WEDNESDAY
Sunny in the morning, then partly sunny with a 20 percent chance of thunderstorms in the afternoon. Highs in the lower 70s. Northwest winds 5 to 10 mph.

WEDNESDAY NIGHT
Mostly clear. A 20 percent chance of thunderstorms in the evening. Lows around 50. North winds up to 10 mph.

THURSDAY
Sunny. Highs in the mid 70s. Northeast winds up to 5 mph.

THURSDAY NIGHT
Clear. Lows in the upper 40s.

FRIDAY
Sunny. Highs in the mid 70s.

FRIDAY NIGHT
Partly cloudy in the evening then becoming mostly cloudy. Lows in the lower 50s.

SATURDAY
Partly sunny. Slight chance of rain showers in the morning, then chance of thunderstorms in the afternoon. Highs in the upper 70s. Chance of precipitation 40 percent.

SATURDAY NIGHT
Mostly cloudy with a 40 percent chance of thunderstorms. Lows around 60.

SUNDAY
Mostly sunny. Chance of showers and slight chance of thunderstorms in the morning, then chance of thunderstorms in the afternoon. Highs in the lower 80s. Chance of precipitation 40 percent.

SUNDAY NIGHT
Partly cloudy. Chance of thunderstorms in the evening, then slight chance of thunderstorms after midnight. Lows in the lower 60s. Chance of thunderstorms 40 percent.

MONDAY
Mostly sunny. Chance of showers and slight chance of thunderstorms in the morning, then chance of thunderstorms in the afternoon. Highs in the mid 80s. Chance of precipitation 40 percent.

Ag Weather Center, Department of Biosystems & Agricultural Engineering, University of Kentucky